Hickory, NC

11:29 PM EDT on May 24, 2018 (GMT -0400)
Hickory Regional

Weather History for KHKY - May, 2013

Change the Weather History Date:

Monday, May 13, 2013

  Actual Average Record
Temperature  
Mean Temperature 54 °F -  
Max Temperature 66 °F 76 °F 92 °F (1956)
Min Temperature 42 °F 54 °F 35 °F (1960)
Degree Days  
Heating Degree Days 11    
Growing Degree Days 4 (Base 50)    
Moisture  
Dew Point 32 °F    
Average Humidity 47    
Maximum Humidity 76    
Minimum Humidity 24    
Precipitation  
Precipitation 0.00 in - - ()
Sea Level Pressure  
Sea Level Pressure 30.09 in    
Wind  
Wind Speed 3 mph (NW)    
Max Wind Speed 13 mph    
Max Gust Speed 21 mph    
Visibility 10 miles    
Events      
Averages and records for this station are not official NWS values.
T = Trace of Precipitation, MM = Missing Value Source: NWS Daily Summary

Daily Weather History Graph

Daily Weather History Graph

Search for Another Location

Airport or City:

Astronomy

May. 13, 2013 Rise Set
Actual Time 6:21 AM EDT 8:22 PM EDT
Civil Twilight 5:53 AM EDT 8:50 PM EDT
Nautical Twilight 5:19 AM EDT 9:25 PM EDT
Astronomical Twilight 4:42 AM EDT 10:02 PM EDT
Moon 9:07 AM EDT (5/13) 11:30 PM EDT (5/13)
Length of Visible Light 14h 57m
Length of Day
14h 00m
Waxing Crescent, 12% of the Moon is Illuminated
May 13
Waxing Crescent
May 18
First Quarter
May 25
Full
May 31
Last Quarter
Jun 8
New

Hourly Weather History & Observations

Time (EDT) Temp. Dew Point Humidity Pressure Visibility Wind Dir Wind Speed Gust Speed Precip Events Conditions
12:53 AM 48.9 °F 34.0 °F 56% 30.03 in 10.0 mi Calm Calm - N/A   Clear
1:53 AM 48.0 °F 33.1 °F 56% 30.03 in 10.0 mi NNW 3.5 mph - N/A   Clear
2:53 AM 46.9 °F 33.1 °F 59% 30.03 in 10.0 mi Calm Calm - N/A   Clear
3:53 AM 45.0 °F 34.0 °F 65% 30.05 in 10.0 mi Calm Calm - N/A   Clear
4:53 AM 43.0 °F 34.0 °F 71% 30.07 in 10.0 mi Calm Calm - N/A   Clear
5:53 AM 43.0 °F 34.0 °F 71% 30.08 in 10.0 mi Calm Calm - N/A   Clear
6:53 AM 42.1 °F 35.1 °F 76% 30.10 in 10.0 mi Calm Calm - N/A   Clear
7:53 AM 46.9 °F 35.1 °F 63% 30.12 in 10.0 mi NW 5.8 mph - N/A   Clear
8:53 AM 53.1 °F 37.0 °F 55% 30.14 in 10.0 mi NW 6.9 mph - N/A   Clear
9:53 AM 55.0 °F 32.0 °F 42% 30.14 in 10.0 mi NNW 5.8 mph - N/A   Clear
10:53 AM 57.0 °F 30.0 °F 36% 30.15 in 10.0 mi WNW 6.9 mph - N/A   Clear
11:53 AM 59.0 °F 33.1 °F 38% 30.14 in 10.0 mi West 6.9 mph - N/A   Clear
12:53 PM 61.0 °F 35.1 °F 38% 30.11 in 10.0 mi Variable 5.8 mph - N/A   Clear
1:53 PM 61.0 °F 30.9 °F 32% 30.08 in 10.0 mi Variable 5.8 mph - N/A   Partly Cloudy
2:53 PM 64.9 °F 32.0 °F 29% 30.06 in 10.0 mi NW 10.4 mph 16.1 mph N/A   Clear
4:53 PM 66.0 °F 28.0 °F 24% 30.03 in 10.0 mi NW 12.7 mph 20.7 mph N/A   Clear
5:40 PM 64.4 °F 26.6 °F 24% 30.07 in 10.0 mi NW 12.7 mph 20.7 mph N/A   Clear
5:53 PM 64.0 °F 26.1 °F 24% 30.04 in 10.0 mi NNW 9.2 mph 17.3 mph N/A   Clear
6:53 PM 62.1 °F 26.1 °F 25% 30.04 in 10.0 mi NW 12.7 mph 20.7 mph N/A   Clear
8:53 PM 55.0 °F 32.0 °F 42% 30.09 in 10.0 mi Calm Calm - N/A   Clear
9:53 PM 53.1 °F 32.0 °F 45% 30.12 in 10.0 mi West 4.6 mph - N/A   Clear
10:53 PM 52.0 °F 33.1 °F 49% 30.14 in 10.0 mi Calm Calm - N/A   Clear
11:53 PM 48.9 °F 35.1 °F 59% 30.16 in 10.0 mi Calm Calm - N/A   Clear